Mitgliederbereich
Imprimable
Boulogne sur Mer, 08/12/2018, FRA - Boulogne sur Mer Urban Trail
Liste der Berichte > 13km - Ergebnis
Suche: Seite: [1] 2 3
1300 Eingaben
 
Les réclamations ne sont plus acceptées, les résultats sont considérés comme définitifs.
Kategorie
PosNrLicenceNameAgeNATMannschaftZeitTkmMoy.PlatzNameStadt
1.1932-RIGAUT Jean-Baptiste26FRA57:554:28 13.471sem
2.2526A08975CDRANSART Adrien31FRATCM EMA58:064:29 13.432sem
3.19832077797DUPORGE Thomas28FRAARTOIS ATHLÉTIS58:334:31 13.323sem
4.1429410996GISLAIN Adrien28FRAUS TOURCOING AT59:194:34 13.154sem
5.1085-WAVRANT David44FRATEAM TRAIL AUDO1:00:464:41 12.841v1m
6.1984204480BENTIVEGNA Jérémy36FRAARTOIS ATHLÉTIS1:01:034:42 12.785sem
7.1001-QUEVAL Rémi31FRAGRAVELIENS TRIA1:01:404:45 12.656sem
8.15031223734VOISIN Corentin17FRAAS SIMENCOURT1:01:544:46 12.601jum
9.1963-DECRIEM Adrien22FRACOURIR À GRAVEL1:02:194:48 12.527sem
10.1675-JOUGLEUX Camille22FRALES FOUS DU GUI1:02:194:48 12.528sem
11.2115-FAGOT Nicolas16FRAOPALE ORIENTATI1:02:214:48 12.512jum
12.2253-PILLEREL Christophe35FRACOURIR A GRAVEL1:02:284:49 12.499sem
13.1995-PRIEZ Ludovic30FRA1:02:394:50 12.4510sem
14.13531123810DEMAGNY Emmanuel38FRARC ARRAS1:02:494:50 12.4211sem
15.1230-DE POORTER Sébastien32FRACAPONORD1:02:504:50 12.4212sem
16.1251-MORTIER Armand29FRAGRAVELINES TRIA1:03:004:51 12.3813sem
17.1499-GOURDIN Hugo18FRA1:03:504:55 12.223jum
18.2072-DUQUESNOY Hugo18FRA1:03:514:55 12.224jum
19.1303-WIMILLE Olivier43FRA1:03:524:55 12.212v1m
20.2049-PLUST Romain35FRARUN IN MAROILLE1:04:194:57 12.1314sem
21.1767-ETIENNE Jerome37FRARUN FOR FUN1:04:334:58 12.0815sem
22.2147-DEGRAVE Guillaume34FRACOURIR À GRAVEL1:04:485:00 12.0416sem
23.1315-DEWAVRIN Florent35FRATEAM NORMAL RUN1:04:525:00 12.0317sem
24.1193-LELIEUR François - Xavier33FRAFX1:04:535:00 12.0218sem
25.2419-FASQUEL Dominique50FRAOPALE TRAIL NAT1:06:085:06 11.801v2m
26.2191-LEBLOND Stephane35FRA1:06:105:06 11.7919sem
27.1306-FAYT Jules17FRA1:06:235:07 11.755jum
28.1894-FASQUELLE Francois29FRA1:06:235:07 11.7520sem
29.2031-DAMERY Benjamin28FRA1:06:295:07 11.7321sem
30.2114-BOURIEZ Valentin19FRA1:06:325:08 11.7322sem
31.1900-DELCUSE Julien25FRA.1:06:565:09 11.6623sem
32.11662110708DAMBREVILLE Benjamin21FRAAC OUTREAU1:06:595:10 11.6524sem
33.2565-HOYER Johnny40FRA1:07:185:11 11.593v1mCONTEVILLE LES BOULOGNE
34.2568-FLASQUE Guillaume27FRA1:07:195:11 11.5925sem
35.1344-SAUVAGE Frédéric42FRA1:07:485:13 11.504v1m
36.1187-MARCOURT Geoffray39FRA1:07:525:14 11.495v1m
37.2291353390DEPREZ Olivier38FRARAC RONCHIN1:07:575:14 11.4826sem
38.2186-LECENDRE Antoine16FRA1:08:085:15 11.456jum
39.1314-DELAPLACE Loïc43FRA1:08:165:16 11.436v1m
40.1395-TROCME Julien39FRA1:08:275:16 11.407v1m
41.2017132192FDENIS Gwendoline26FRA1321921:08:345:17 11.381sef
42.1607-WIDEHEM Dany25FRA1:08:555:19 11.3227sem
43.2524-ROUBLIC Arnaud38FRA1:08:575:19 11.3128sem
44.1005-COLIER Jeremy36FRA1:09:135:20 11.2729sem
45.1908115155ROUSSEL William43FRALES KIDS'AISNE1:09:205:20 11.258v1m
46.19171960592BERQUEZ Corentin25FRABOULOGNE AC1:09:205:20 11.2530sem
47.1360-PLANQUE Florent31FRA1:09:265:21 11.2331sem
48.1839-LEFEBVRE Damien41FRAATSCAF DUNKERQU1:09:395:22 11.209v1m
49.1765-FVANDERSTRAETEN Karine46FRACOURIR A GRAVEL1:09:495:23 11.171v1f
50.1298-DOBBELS Morgan27FRATEAM GRAVELINES1:09:575:23 11.1532sem
51.1399-LEMAITRE Laurent48FRA1:10:015:24 11.1410v1m
52.1513-CORRUE Cédric37FRAECUREUILS VTT1:10:065:24 11.1333sem
53.2138-OSSTYN Remy18FRA1:10:075:24 11.137jum
54.2439-VIELLE Julien38FRATILLOY BROTHER1:10:115:24 11.1134sem
55.2155-WALLYN Hugo17FRATL591:10:125:24 11.118jum
56.1561-FRANÇOIS Christophe41FRA1:10:215:25 11.0911v1m
57.1701-LEMAIRE Benoit34FRATTO1:10:285:26 11.0735sem
58.1550-FERRAND Vincent30FRATEAM RPZ1:10:385:26 11.0436sem
59.19611299987SORY Hervé48FRAATHLÉ HALLUIN V1:10:495:27 11.0212v1m
60.1905-COUVELARD Michel60FRA1:10:495:27 11.021v3m
61.2223-LESCIEUX Christian43FRA1:11:005:28 10.9913v1m
62.1593-TISSERAND Thibaut23FRA1:11:015:28 10.9837sem
63.20581850452TELLIER Camille35FRAFOULEES FLESSEL1:11:025:28 10.9838sem
64.1719-BALY Sylvain28FRATEAM MCDO OUTRE1:11:025:28 10.9839sem
65.1977-GARENAUX Christophe52FRA1:11:105:29 10.962v2m
66.19851760484FLUCAS Marion33FRAARTOIS ATHLÉTIS1:11:135:29 10.952sef
67.2037-AMARA Sofiane23FRA1:11:205:30 10.9440sem
68.2123-SION Baptiste36FRA1:11:235:30 10.9341sem
69.2527-MARTEL Philippe35FRA1:11:245:30 10.9342sem
70.1756-LEGRAND Alexis25FRA1:11:245:30 10.9343sem
71.1661-LEFEVRE Francois36FRA1:11:265:30 10.9244sem
72.1818-BASSEZ Guillaume39FRATCM621:11:275:30 10.9245sem
73.2411-BARTHÉLÉMY Emmanuel42FRA1:11:285:30 10.9214v1m
74.2539-NOËL Camille31FRA1:11:305:30 10.9146sem
75.1069-PEUREUX Vincent32FRAFLEXI FRANCE1:11:355:31 10.9047sem
76.1043-REGNIER Frédéric47FRA1:11:375:31 10.8915v1m
77.1126-BREEN Christophe47FRACCCIE1:11:395:31 10.8916v1m
78.2006-DERAMECOURT Germain34FRAHARDELOTBEACH1:11:475:32 10.8748sem
79.1922-PIERRU Sebastien39FRA1:11:485:32 10.8717v1m
80.2310519938ETIENNE Jean-Claude56FRABOULOGNE AC1:11:505:32 10.863v2m
81.2556-TIERNY Arnaud47FRAGRAVITY1:11:535:32 10.8518v1m
82.20832098811FBRISSAUD Raphaëlle38FRALA PATRIOTE CRO1:11:555:32 10.853sef
83.23182041633HERMEL Thierry47FRAMARCK1:11:555:32 10.8519v1m
84.1233-DAMBRICOURT Pierre-Antoine31FRA1:12:045:33 10.8349sem
85.2541-TEMPERVILLE Roland Xavier41FRAAZDP RUNNING1:12:105:34 10.8120v1m
86.1705-BREBION Jonathan38FRA1:12:135:34 10.8050sem
87.2144-DUTERTRE Rudy32FRAGRAVELINES TRIA1:12:155:34 10.8051sem
88.1653-LEDEZ François-Xavier37FRALES CORSAIRES1:12:165:34 10.7952sem
89.2238-GOETZ Jonathan29FRA1:12:195:34 10.7953sem
90.1418-JOIGNAUX Julien25FRA1:12:335:35 10.7554sem
91.1901-LAHOCHE Romain36FRADECATHLON1:12:485:36 10.7255sem
92.2103-HENNUYER Christian38FRATRAM TIUNFU1:12:495:37 10.7156sem
93.2153-GOURY Olivier33FRA1:12:535:37 10.7057sem
94.2564-HEROUART Quentin29FRA1:13:055:38 10.6858sem
95.1031-FKNAPEN Chrystel42FRAFOULÉES ATHLÉTI1:13:055:38 10.672v1f
96.1201-ALLAERT Claude51FRATEAM OFF COURSE1:13:055:38 10.674v2m
97.1234-FONTAINE Tanguy25FRA1:13:085:38 10.6759sem
98.2523-DHELLEMMES Vincent32FRA1:13:155:39 10.6560sem
99.1581-BALY Adrien32FRATEAM ERA1:13:165:39 10.6561sem
100.1681-DUFOUR Alexandre31FRA1:13:175:39 10.6562sem
101.20741442298DA FONSECA GUERRA Frederic39FRARUNNING CLUB DE1:13:175:39 10.6521v1m
102.1979-BOURDON Jérôme41FRA1:13:195:39 10.6422v1m
103.1511-BOUVOT Cyrille39FRA1:13:245:39 10.6323v1m
104.1130-MAHY Benoit38FRA1:13:245:39 10.6363sem
105.1294-LELEU Geoffroy41FRAOGS1:13:275:39 10.6224v1m
106.2538-WALLAERT Julien37FRA1:13:425:41 10.5864sem
107.20911303924MEREAUX Pierre26FRATOUQUET OPALE A1:13:475:41 10.5765sem
108.2159-LINÉ Guillaume43FRA1:13:515:41 10.5625v1m
109.2535-CONDETTE Mickaël41FRA1:13:575:42 10.5526v1m
110.2036-TOUCHAIS Maxime27FRA1:14:025:42 10.5466sem
111.1745-GISLAIN Alain59FRATEAM TRAIL AUDO1:14:095:43 10.522v3m
112.2552-MAILLARD Adrien22FRA1:14:125:43 10.5167sem
113.1440-SOARES Orlando44FRALILLE RUNNING T1:14:145:43 10.5127v1m
114.1420-FWATTEL Margaux29FRALILLE RUNNING T1:14:145:43 10.514sef
115.2381-DEFOSSE Remy18FRABLANC NEZ TRIAT1:14:155:43 10.519jum
116.2394-BRENET Rudy47FRATEAM CHANNEL1:14:255:44 10.4828v1m
117.1609-COLIER Jerome33FRA1:14:345:45 10.4668sem
118.2214-MARCOTTE Hugo18FRA1:14:395:45 10.4510jum
119.1346-BOURGAIN Léo17FRA1:14:425:45 10.4411jum
120.2296-FADAM Ketty34FRA1:14:435:45 10.445sef
121.2297-LOPES Antonio57FRA1:14:435:45 10.445v2m
122.2332-DUBRULLE Julien32FRA1:14:495:46 10.4369sem
123.1969-GARENAUX Martin26FRA1:14:585:46 10.4170sem
124.2570-LORIETTE Hugo15FRA1:14:595:47 10.4012jum
125.2481-DUPLAY Julien37FRA1:14:595:47 10.4071sem
126.2162-DUCROCQ Dimitri21FRA1:15:015:47 10.4072sem
127.1799-DUPONT Olivier45FRALES SANGLIERS D1:15:025:47 10.4029v1m
128.2508-BOURGAIN Guillaume41FRA1:15:035:47 10.3930v1m
129.2517-BOUTOILLE Jeremy34FRA1:15:045:47 10.3973sem
130.22782041640LEGROS Mathieu38FRAAS MARCK1:15:085:47 10.3874sem
131.20161777159BOIS Stephane49FRAPATRIOTE CROSS 1:15:115:47 10.386v2m
132.1026-VASSEUR Raphaël38FRA1:15:195:48 10.3675sem
133.2328-ROCHER Valentin20FRA1:15:215:48 10.3576sem
134.2289-BENJAMIN Colasse19FRATURTLE BIKE1:15:225:48 10.3577sem
135.2252-COLASSE Martin17FRATURTLE BIKE1:15:235:48 10.3513jum
136.22952020112CRETON Raphael47FRAAS MARCK1:15:295:49 10.3431v1m
137.2116-LEDEZ Gauthier24FRA1:15:295:49 10.3378sem
138.1428-LOHYN Adrien27FRA1:15:395:50 10.3179sem
139.2298-LUTTWILLER Charles16FRATEAM ALL MOUNTA1:15:455:50 10.3014jum
140.2066-GRANDJEAN Teddy32FRA1:16:075:52 10.2580sem
141.18962061445FHÉNON Justine28FRABACO1:16:095:52 10.246sef
142.1156-FORTIN Benoît33FRA1:16:095:52 10.2481sem
143.1924-FPLATIAU Marie37FRA1:16:105:52 10.247sef
144.1626-DUMONT Arnaud33FRA1:16:115:52 10.2482sem
145.1517-CORNU Anthony41FRA1:16:125:52 10.2432v1m
146.1381-FORYCKI Ludovic38FRA1:16:125:52 10.2483sem
147.278-VIEQUE Romain35FRALNA1:16:215:53 10.2284sem
148.1030-KNAPEN Benoit44FRA1:16:215:53 10.2233v1m
149.1530-CHAMBRIER Gauthier30FRA1:16:215:53 10.2285sem
150.2336-HERBÉ Florian22FRA1:16:225:53 10.2286sem
151.1942-NOEL Mathieu23FRA1:16:275:53 10.2087sem
152.2333-DANEL Marc-Andre52FRALYS CALAIS TRI1:16:305:54 10.207v2m
153.2496-COUELLANT Francois26FRA1:16:355:54 10.1988sem
154.2187-CLAIRET Christophe42FRACOURRIRE À GRAV1:16:365:54 10.1834v1m
155.2293-BAGUE Florian34FRA1:16:365:54 10.1889sem
156.1480-GODARD Kevin30FRATURTLEBIKE1:16:365:54 10.1890sem
157.1056-MANIER Olivier37FRA1:16:395:54 10.1891sem
158.2550-FINIELS Benjamin28FRA1:16:405:54 10.1892sem
159.1335-ROCHAS Nicolas37FRA1:16:465:55 10.1693sem
160.1363-BUTEL François43FRA1:16:475:55 10.1635v1m
161.1997-VERAGUE Romain29FRA1:16:485:55 10.1694sem
162.2215-FCOHEN SOLAL Julie33FRA1:16:485:55 10.168sef
163.1032-BOSSART Frederic43FRATRAILERS DU BEE1:16:515:55 10.1536v1m
164.1099-MARGOLLE Christophe50FRAAS CAMIERS1:16:525:55 10.158v2m
165.2571-BEAUGRAND Steeve24FRA1:16:555:55 10.1495sem
166.2209-HANNO Patrick39FRA1:16:565:56 10.1496sem
167.11151997842FPEREZ Marie-Hélène47FRASOC CALAIS1:16:585:56 10.143v1f
168.2557-RATEL Frederic45FRA1:16:595:56 10.1337v1m
169.1331-LENDERBAL Pierre34FRA1:17:015:56 10.1397sem
170.2040-LEBELLE Stéphane43FRAACM1:17:015:56 10.1338v1m
171.2089-SAUVAGE Romain27FRA1:17:045:56 10.1298sem
172.1361-ROGER Didier60FRA1:17:055:56 10.123v3m
173.2041-RINGOT Romuald39FRAAS LFB1:17:065:56 10.1239v1m
174.1249-LOOCK Frederic52FRA1:17:075:56 10.129v2m
175.2047-SAUVAGE Nicolas17FRA1:17:095:57 10.1115jum
176.1910-DA SILVA Laurent18FRALES KIDS'AISNE1:17:095:57 10.1116jum
177.1124-BELKESSAM Frederic41FRALES TRAILERS DU1:17:125:57 10.1040v1m
178.17891183702MARCINIAK Roger47FRACSA AVION1:17:135:57 10.1041v1m
179.1709-COLMAR Bertrand38FRA1:17:165:57 10.1099sem
180.1982680151FWILLART Camille24FRAARTOIS ATHLÉTIS1:17:175:57 10.099sef
181.2450-RUDENT Clement27FRACACB1:17:195:57 10.09100sem
182.2567-MALLE Nicolas41FRA1:17:235:58 10.0842v1mBAINCTHUN
183.1271-WILLETT Steven22FRA1:17:255:58 10.08101sem
184.1981-ROY Romain32FRAGRAVITY1:17:255:58 10.08102sem
185.2562-FLAHAUT Daniel45FRA1:17:345:58 10.0643v1mBOULOGNE SUR MER
186.19981960845FSINGER Claire22FRAARTOIS ATHLÉTIS1:17:365:59 10.0510sef
187.2005-RAMET Alexis18FRA1:17:365:59 10.0517jum
188.1407-DESSOLY Laurent34FRA1:17:375:59 10.05103sem
189.1741-DOURLENS Olivier44FRA1:17:375:59 10.0544v1m
190.20392001143SAUVAGE Patrick55FRAA C OUTREAU1:17:385:59 10.0510v2m
191.1384-LORTAL Franck52FRAPROPAGE COACH T1:17:435:59 10.0411v2m
192.1086-GHESQUIERE Grégory44FRATEAM GROS BEEF1:17:486:00 10.0345v1m
193.20701133716CAULIER Freddy58FRAACOUTREAU1:17:516:00 10.0212v2m
194.1950-LATTAIGNANT Stéphane45FRALALA TEAM1:17:526:00 10.0246v1m
195.1906-DELATTRE Jean63FRALONGUENESSE NAT1:17:576:00 10.014v3m
196.1409-BALY Patrick62FRATEAM BALY1:18:036:01 10.005v3m
197.1740-HARDOIN Jean-Francois46FRAAC CAPPELOIS1:18:086:01 9.9847v1m
198.1000-FFLECHEL Alixe33FRALES GONFLÉS1:18:096:01 9.9811sef
199.1816-DEBOUT Ludovic22FRA1:18:106:01 9.98104sem
200.24982140135FBAILLET Laura30FRAEMA1:18:136:01 9.9712sef
201.25181776324DANGLOT Maxime39FRAUS VALENCIENNES1:18:146:02 9.97105sem
202.1560-FDELPLANQUE Laura28FRA1:18:146:02 9.9713sef
203.2323-COOPMAN Freddy49FRA1:18:146:02 9.9713v2m
204.16451886539BARRAS Julien33FRAAS MARCK1:18:156:02 9.97106sem
205.13651726410AGEZ David47FRAAS MARCK1:18:216:02 9.9648v1m
206.1592-RENOUX Jérôme39FRA1:18:226:02 9.9549v1m
207.1809-LUGAT Charles52FRA1:18:246:02 9.9514v2m
208.20561469666PERROTTE Denis51FRACCTHELLE1:18:246:02 9.9515v2m
209.1214-DENAVEAU Emmanuel40FRA1:18:286:03 9.9450v1m
210.1746-ABIDI Samyr37FRAATHLÉTISME TÉTE1:18:306:03 9.94107sem
211.1247-PELEREIN Ludovic43FRA1:18:366:03 9.9351v1m
212.25202100800VERON Ludovic37FRAAC NOYON1:18:426:04 9.91108sem
213.1122-MORIEUX Francois29FRA1:18:426:04 9.91109sem
214.1340-BUTEL Romain25FRA1:18:446:04 9.91110sem
215.2383-DEFOSSE Ludovic46FRABLANC NEZ TRIAT1:18:516:04 9.8952v1m
216.2434-VIVIEZ Vincent37FRABLANC NEZ TRIAT1:18:526:04 9.89111sem
217.2111-NOLLET Antoine40FRA1:18:536:05 9.8953v1m
218.1782-VERMEIL Matthieu35FRA1:18:536:05 9.89112sem
219.1683-MERCIER Mathieu34FRA1:18:546:05 9.89113sem
220.2363-FWILLEM Martin17FRATENNIS CLUB WIM1:18:566:05 9.881juf
221.1678-CHAUCHOY Olivier49FRACOURIR À COLEMB1:18:576:05 9.8816v2m
222.1286-THIOU Nicolas39FRA1:19:036:05 9.87114sem
223.2545-GRENON Cyril30FRA1:19:126:06 9.85115sem
224.1403-DELANNOY Marc32FRA1:19:136:06 9.85116sem
225.2139-ACHTE Adrien33FRA1:19:146:06 9.85117sem
226.1406-TAINON Samuel38FRAMULTI EXTREM' P1:19:156:06 9.84118sem
227.1580-EL-HORICH Ugo21FRATEAM ERA1:19:186:06 9.84119sem
228.1401-TETART Mickael40FRA1:19:196:07 9.8354v1m
229.1577-POET Fabien38FRA1:19:226:07 9.83120sem
230.2224-WALTER Ludovic34FRAGSDI1:19:296:07 9.81121sem
231.1766-VANDERSTRAETEN Christophe46FRACOURIR A GRAVEL1:19:316:07 9.8155v1m
232.2461-BOULANGER Sébastien46FRAHARDELOT BEACH1:19:316:07 9.8156v1m
233.2467-RORIVE Sébastien44FRAASDN1:19:346:08 9.8057v1m
234.2280-HENNEQUIN Ludovic50FRA1:19:346:08 9.8017v2m
235.1213-AOUADJ David41FRAJOGGING CLUB LI1:19:396:08 9.7958v1m
236.1774-ROSSIGNON Vincent45BEL1:19:416:08 9.7959v1m
237.1220-JULIEN Frédéric39FRA1:19:436:08 9.7960v1m
238.1866-LETREZ POPIEUL Lucas23FRADUNKERQUE GRAND1:19:446:08 9.78122sem
239.1754-NR 1754 1:19:456:09 9.781xxx
240.1902-LEICHT Morgan28FRA1:19:456:09 9.78123sem
241.1855-DEGAND Frédéric42FRA1:19:466:09 9.7861v1m
242.2306-BOULY Guillaume26FRA1:19:466:09 9.78124sem
243.2024-BERTILLON David29FRAWE ARE CROSSFIT1:19:516:09 9.77125sem
244.1579-EL-HORICH Marc49FRATEAM ERA1:19:526:09 9.7718v2m
245.2275-DUCROCQ Yves60FRA1:19:566:09 9.766v3m
246.1237-PETITPRES Frederic30FRATRI1:19:576:09 9.76126sem
247.1239-PETITPRES Gaetan30FRATRI1:19:586:10 9.76127sem
248.1956-VAUTIER Matthieu31FRA1:20:006:10 9.75128sem
249.1785-FVOLANT Yolande40FRA1:20:126:11 9.734v1f
250.2267-DUWAT Frederic52FRA1:20:146:11 9.7219v2m
251.1786-LACHERE Michael39FRA1:20:156:11 9.7262v1m
252.1155-COUVELARD Julien33FRAOPALEFITOUTOOR1:20:186:11 9.71129sem
253.2217-FCOHEN SOLAL Laurence53FRAJOGGING CLUB LI1:20:236:11 9.701v2f
254.1143-MEURET Guillaume45FRA1:20:266:12 9.7063v1m
255.1452-DELACRE Sylvain46FRA1:20:266:12 9.7064v1m
256.2405-DAUX Fabien43FRA1:20:386:13 9.6765v1m
257.1497-QUENNEHEN Dominique46FRA1:20:406:13 9.6766v1m
258.22061894088MASCOT David46FRAAS MARCK1:20:416:13 9.6767v1m
259.2468-PLANCQ Matthias24FRA1:20:446:13 9.66130sem
260.1724-GOURNAY Theo17FRA1:20:446:13 9.6618jum
261.1725-GOURNAY Fabrice50FRA1:20:456:13 9.6620v2m
262.2087-THIEBAUT Christophe34FRA1:20:496:13 9.65131sem
263.1158-COUVELARD Joel35FRASANS1:20:496:13 9.65132sem
264.1063-FMOLINARD Mathilde35FRAT2CAP'ATHLON1:20:516:14 9.6514sef
265.1402-CHEMELLO Stephane44FRA1:20:526:14 9.6568v1m
266.1674-DELCROIX Stephane44FRA1:20:546:14 9.6469v1m
267.1493-BOUDAILLIEZ Sébastien46FRA1:20:556:14 9.6470v1m
268.2362-FTELLIER Emeline21FRA1:20:576:14 9.6415sef
269.22292007530HIELLE Antoine26FRAAS MARCK1:21:016:14 9.63133sem
270.1696-LE POITEVIN Stephen28FRA1:21:096:15 9.61134sem
271.1379-LUBRET Rémy38FRA1:21:116:15 9.61135sem
272.1548-WAGENHEIM Sébastien36FRATEAM TRAIL GRAV1:21:166:15 9.60136sem
273.1160-PERARD Julien28FRA1:21:166:16 9.60137sem
274.1878-LEICHT Stéphane58FRA1:21:166:16 9.6021v2m
275.1731-MARTEL Loic35FRA1:21:226:16 9.59138sem
276.1751-BRUNELLIERE Emmanuel42FRA1:21:276:16 9.5871v1m
277.22632145275JUSTIN Cedric39FRABOULOGNE ATHLET1:21:286:16 9.5872v1m
278.2068-VASSEUR Guillaume27FRA1:21:296:17 9.57139sem
279.1459-GENTIL Charles35FRA1:21:306:17 9.57140sem
280.1996-DELANNOY Thibaut27FRA1:21:326:17 9.57141sem
281.2507-GROUX William42FRA1:21:336:17 9.5773v1m
282.2497-MAGNIER David33FRA1:21:336:17 9.57142sem
283.2330177594DOYER Eric47FRAAS MARCK1:21:336:17 9.5774v1m
284.1926-FBOUTTÉ Melanie30FRALES SANGLIERS D1:21:366:17 9.5616sef
285.1958-DEMILLY Pierre18FRA1:21:376:17 9.5619jum
286.2062-JOISSAINS Jean-Nicolas32FRA1:21:396:17 9.55143sem
287.2441-FMOUSSAY Emilie33FRATEAM GRAVELINES1:21:396:17 9.5517sef
288.1042-FREGNIER Katy43FRA1:21:416:17 9.555v1f
289.1704-CARRU Julien36FRA1:21:446:18 9.54144sem
290.2258-GUERIN Victor27FRA1:21:456:18 9.54145sem
291.2226-FHURTREL Clemence36FRALONGUENESSE NAT1:21:496:18 9.5418sef
292.1616-SORET Manu19FRA1:21:496:18 9.54146sem
293.1299-BOUIN Bernard44FRATEAM TRAIL GRAV1:21:526:18 9.5375v1m
294.1194-FROMENT Dominique41FRA1:21:546:18 9.5276v1m
295.1238-PETITPRES Mickael30FRATRI1:21:586:19 9.52147sem
296.2409-DUVAL Romain29FRA1:22:016:19 9.51148sem
297.1260-FVAN AGT Chloé17FRA1:22:056:19 9.502juf
298.1608-DELHAYE Guillaume42FRAKARATÉ CLUB GRA1:22:106:20 9.4977v1m
299.12151389588PODEVIN Jean-Pierre55FRAA C OUTREAU1:22:116:20 9.4922v2m
300.1196-ROMERA Esteban23FRA1:22:186:20 9.48149sem
301.1466-WACK Julien36FRA1:22:246:21 9.47150sem
302.1308-FROISSART Marc34FRA1:22:296:21 9.46151sem
303.17731758982FDOYER Angèle30FRASTADE OLYMPIQUE1:22:296:21 9.4619sef
304.1863-FOURNY Johann42FRA1:22:296:21 9.4678v1m
305.2544-ROUSSEL Pierre Francois27FRA1:22:336:21 9.45152sem
306.1591-MULOT Benjamin35FRA1:22:386:22 9.44153sem
307.1884-LASGORCEUX Mikael37FRA1:22:426:22 9.43154sem
308.2429-LECLERCQ Johan31FRABOUBOU1:22:446:22 9.43155sem
309.1933-FGAJEWSKI Helene24FRA1:22:456:22 9.4320sef
310.1091-FSAUGUET Camille32FRA1:22:536:23 9.4121sef
311.2256-MOLINIER Eric51FRA1:22:556:23 9.4123v2m
312.1491-FHAUTBOUT Perrine21FRA1:22:586:23 9.4022sef
313.1157-LOUVET Christophe53FRA1:23:036:24 9.3924v2m
314.2513-HOURDEQUIN Thomas32FRATIMSPORT1:23:046:24 9.39156sem
315.12251783046LIPPENS Eric55FRAARTOIS ATHLÉTIS1:23:066:24 9.3925v2m
316.2208-WAY Stéphane43FRAASUD1:23:086:24 9.3879v1m
317.1940-BEYOU François26FRA1:23:086:24 9.38157sem
318.2168-ENGRAND Antoine27FRA1:23:146:25 9.37158sem
319.1496-NATANNI Steeven25FRA1:23:156:25 9.37159sem
320.1474-DELANNOY Romain35FRAESPACE ADOS1:23:156:25 9.37160sem
321.1199-SCRIVE Benjamin20FRA1:23:176:25 9.37161sem
322.1284-FHEDEL Vanessa31FRATEAM GRAVELINES1:23:226:25 9.3623sef
323.1275-FDOUMENGE Laetitia40FRATEAM GRAVELINES1:23:226:25 9.366v1f
324.2410-BAHEUX Victor16FRA1:23:236:25 9.3620jum
325.1844-BAILLEUL Richard39FRATL591:23:266:26 9.3580v1m
326.2337-GARÉNAUX François45FRACROWN OUTREAU1:23:306:26 9.3481v1m
327.1171-DASSONNEVILLE Christophe48FRA1:23:336:26 9.3482v1m
328.2136-SALLIET Frédéric44FRA1:23:336:26 9.3483v1m
329.2164-PIDOU Aurelien38FRA1:23:356:26 9.33162sem
330.1159-LEJOSNE Alexandre28FRA1:23:366:26 9.33163sem
331.2057-D'HUIN Cédric37FRAAS LFB1:23:386:26 9.33164sem
332.2354-MAGNE Jean-François44FRAAC CAPELLOIS1:23:406:27 9.3284v1m
333.1167-FFOURCROY Fanny44FRA1:23:436:27 9.327v1f
334.1972-MERLIN François20FRA1:23:456:27 9.31165sem
335.2063-FCOPPIN Anne-France39FRA1:23:466:27 9.318v1f
336.17291849140LELEU Gabriel49FRABOULOGNE ATHETI1:23:486:27 9.3126v2m
337.1864-FMARÉCHAL Camille22FRA1:23:496:27 9.3124sef
338.2548-LOUAGE Marc52FRAARCELOR1:23:506:27 9.3127v2m
339.1927-WILBAL Antoine31FRA1:23:506:27 9.30166sem
340.2554-HERBIN Gael37FRALES PARIAS1:23:546:28 9.30167sem
341.1914-FFAYEULLE Sophie28FRA1:23:556:28 9.3025sef
342.2012-PAVY David41FRA1:23:556:28 9.3085v1m
343.1925-BERTOUX Damien25FRA1:23:576:28 9.29168sem
344.2216-LATARGET Freddy46FRA1:23:596:28 9.2986v1m
345.2276-LEFEBVRE Arthur16FRA1:24:036:28 9.2821jum
346.2514-LEBEL Pierre34FRA1:24:056:29 9.28169sem
347.2175-DEMARET Pierre-Alexandre24FRA1:24:116:29 9.27170sem
348.1119-FEBVIN Daniel38FRAHAND BALL NOUVI1:24:146:29 9.26171sem
349.1590-MALLET Hugo28FRA1:24:176:29 9.25172sem
350.1883-FVLAMYNCK Caroline39FRA1:24:206:30 9.259v1f
351.1964-FDUTHOIT Camille28FRA1:24:226:30 9.2526sef
352.1638-FAIT Franck52FRA1:24:256:30 9.2428v2m
353.1971-FDONNEAUD Charlotte28FRA1:24:296:30 9.2327sef
354.2128-LAINE Gildas37FRA1:24:306:30 9.23173sem
355.1798-MILLE David44FRALES SANGLIERS D1:24:316:31 9.2387v1m
356.1352-ALLEXANDRE Yannick22FRA1:24:316:31 9.23174sem
357.2189-SAISON Romain26FRA1:24:316:31 9.23175sem
358.1475-LLOYD Jerome29FRAESPACE ADOS1:24:316:31 9.23176sem
359.1538-JEZEQUEL Kevin26FRA1:24:326:31 9.23177sem
360.1643-DÉTRÉ Augustin30FRA1:24:326:31 9.23178sem
361.2108-BATAILLE Matthieu42BELCOACH RUNNING1:24:366:31 9.2288v1m
362.1277-MERLEN Raphaël44FRA1:24:376:31 9.2289v1m
363.2384-BODELET Melvin24FRA1:24:376:31 9.22179sem
364.2378-HEMBERT Clement24FRA1:24:386:31 9.22180sem
365.1094-DUBOIS Firmin28FRATEAM TRAIL AUDO1:24:436:31 9.21181sem
366.1149-BEAUCOUR Mathieu24FRA1:24:456:32 9.20182sem
367.2071-VASSEUR Francois34FRA1:24:486:32 9.20183sem
368.13261269087BODEL Nicolas41FRABAC1:24:486:32 9.2090v1m
369.2371-DUBRULLE Charles28FRA1:24:526:32 9.19184sem
370.1500-DULAC Fabrice46FRA1:24:546:32 9.1991v1m
371.1778-MICHEL Julien41FRA1:24:596:33 9.1892v1m
372.1524-FBEWERSDORF Jessica40FRATEAM TRAIL GRAV1:25:026:33 9.1710v1f
373.1178-RIGOBERT Gregory39FRA1:25:076:33 9.1693v1m
374.1334-BRICHE Jean Christophe40FRA1:25:096:33 9.1694v1m
375.2370-BETHOUART Etienne31FRA1:25:106:34 9.16185sem
376.1953-FLAMBLIN Lucie28FRA1:25:176:34 9.1528sef
377.2440-CRETON Roger26FRA1:25:196:34 9.14186sem
378.2551-PERARD Antoine23FRATENNIS CLUB BOU1:25:196:34 9.14187sem
379.1669-CHRÉTIEN Clément17FRA1:25:206:34 9.1422jum
380.1633-BACQUEVILLE Teo20FRA1:25:206:34 9.14188sem
381.1599-BLOND Grégory44FRA1:25:216:34 9.1495v1m
382.1563-COUSIN Damien44FRA1:25:236:35 9.1496v1m
383.17031101724LENOIR Stéphane49FRABACO1:25:246:35 9.1329v2m
384.2485-GOUILLART Jonathan34FRA1:25:256:35 9.13189sem
385.2542-LEPRETRE Corentin27FRA1:25:286:35 9.13190sem
386.1065-TIBERGHIEN Vianney47FRA1:25:296:35 9.1397v1m
387.1313-SAGNIER Remy43FRA1:25:306:35 9.1298v1m
388.1586-BELLEMENT Marian25FRA1:25:316:35 9.12191sem
389.1520-RASSINON Samuel36FRA1:25:316:35 9.12192sem
390.1310-FLECOMTE Celia25FRATEAM GRAVELINES1:25:346:35 9.1229sef
391.2352-LECOINTE Nicolas34FRA1:25:346:35 9.12193sem
392.16442073204BAYARD Vincent42FRAAS MARCK1:25:466:36 9.1099v1m
393.1634-BACQUEVILLE Morgan27FRANSV ALBINOS1:25:466:36 9.10194sem
394.1261-DAMEZ Philippe47FRA1:25:506:37 9.09100v1m
395.1544-FDENOEUD Olivia46FRABLANC NEZ TRIAT1:25:536:37 9.0811v1f
396.1545-ZIEGLER Tristan33FRABLANC NEZ TRIAT1:25:546:37 9.08195sem
397.1504-GONTIER Lucas17FRA1:25:546:37 9.0823jum
398.1038-BOURGAIN Pierre46FRA1:26:006:37 9.07101v1m
399.1463-PELLETIER Franck55FRA1:26:016:37 9.0730v2m
400.1398-FJUMETZ Regine61FRAACOUTREAU1:26:036:38 9.071v3f
401.1649-BAHIER Raphaël22FRA1:26:066:38 9.06196sem
402.2534-PAGNIEZ Fabien40FRA1:26:116:38 9.05102v1m
403.2038-DELATTRE Romuald31FRA1:26:116:38 9.05197sem
404.2269-LEVEL Eddy44FRA1:26:126:38 9.05103v1m
405.1316-FCHOUKATLI Laly22FRA1:26:136:38 9.0530sef
406.2525-BOULAY Skotty24FRA1:26:146:38 9.05198sem
407.1248-FBOCKEMUEHL Mélanie47DEU1:26:156:39 9.0412v1f
408.1803-PELLETIER Sébastien46FRALES SANGLIERS D1:26:166:39 9.04104v1m
409.2235-SEILLIER Adrien28FRA1:26:216:39 9.03199sem
410.1044-HAUDRECHY Didier55FRA1:26:216:39 9.0331v2m
411.1536-FHARTEEL Anaïs25FRA1:26:216:39 9.0331sef
412.1268-DECRIEM Francois34FRATRAILER DU BEEF1:26:256:39 9.03200sem
413.2388-GELDHOF Thierry46FRA1:26:256:39 9.03105v1m
414.2222-DUCLERCQ Olivier34FRA1:26:276:39 9.02201sem
415.1376-CRETON Frédéric41FRA1:26:286:40 9.02106v1m
416.2445-HUTIN Ludovic37FRA1:26:296:40 9.02202sem
417.1518-PUYPE Benoit29FRA1:26:296:40 9.02203sem
418.2158-KNAPEN Emmanuel50BEL1:26:296:40 9.0232v2m
419.1370-FLEGAGNEUR Christine60FRA1:26:296:40 9.022v3f
420.1373-LEMAIRE Loic32FRA1:26:316:40 9.02204sem
421.1522-FDURANT Nicole48FRA1:26:336:40 9.0113v1f
422.1304-FFAYT Helene44FRA1:26:356:40 9.0114v1f
423.16791440903FCOUTIEZ Adeline26FRABACO1:26:356:40 9.0132sef
424.1088-JOONNEKINDT Christophe46FRAGRAVELINES NATA1:26:376:40 9.01107v1m
425.1566-BOULANGER Ryan20FRA1:26:376:40 9.01205sem
426.1168-GUEVILLE Geoffrey28FRA1:26:396:40 9.00206sem
427.1442984430POYER Alexis33FRA1:26:396:40 9.00207sem
428.2344-FDUCROCQ Lorine25FRAJOGGING CLUB LI1:26:436:41 9.0033sef
429.1387-DEBESQUE Fabrice52FRA1:26:456:41 8.9933v2m
430.1202-BOUTOILLE Marc28FRA1:26:496:41 8.99208sem
431.16062073794BEAUGRAND Fabrice47FRABERCK ATHLÉTISM1:26:496:41 8.99108v1m
432.1066-DUFOSSÉ Laurent37FRA1:26:496:41 8.98209sem
433.1941-CAPPE Alexandre25FRASAINT MARTIN BO1:26:506:41 8.98210sem
434.2157-MARIETTE Vincent44FRAGRAVELINES TRIA1:26:506:41 8.98109v1m
435.2011-TYTECA Kevin29FRA1:26:506:41 8.98211sem
436.1467-THIRARD Brandon24FRA1:26:516:41 8.98212sem
437.2393-SAVOYE Vincent38FRA1:26:516:41 8.98213sem
438.1788-AGEZ Julian29FRA1:26:566:42 8.97214sem
439.2174-DE BEAUPUIS Stephane44FRACROWN OUTREAU1:26:586:42 8.97110v1m
440.1351-LEROY Jessy22FRAFFTRI1:27:016:42 8.96215sem
441.1102-LAURENT Philippe57FRA1:27:016:42 8.9634v2m
442.1833-KERCKHOVE Sébastien36FRA1:27:046:42 8.96216sem
443.1636-CABOCHE Josselin35FRA1:27:086:43 8.95217sem
444.2095-HARSIUCK Gregoire27FRAJOGGING CLUB LI1:27:106:43 8.95218sem
445.2152-BOUQUILLION Frederic33FRA1:27:106:43 8.95219sem
446.2325-RICOUART Stéphane34FRAGRAVELINES TRIA1:27:116:43 8.95220sem
447.24432149986ROBERT David45FRAAC OUTREAU1:27:136:43 8.94111v1m
448.1319-DUMOULIN Mathieu52FRA1:27:156:43 8.9435v2m
449.1388-MIELCAREK Didier57FRA1:27:226:44 8.9336v2m
450.1458-FGENTIL Celine36FRA1:27:236:44 8.9334sef
451.2404-CUVELIER Julien31FRA1:27:246:44 8.93221sem
452.1028-BEAUMER Guillaume41FRA1:27:266:44 8.92112v1m
453.12691681390FJOLY Mélanie31FRASOC (CALAIS)1:27:286:44 8.9235sef
454.1385-FSTOURME Sandrine51FRAEVRY1:27:286:44 8.922v2f
455.1270-COCQUEMPOT Romain33FRA1:27:296:44 8.92222sem
456.2561-CHEVALIER Thibaut36FRA1:27:296:44 8.92223semST MARTIN BOULOGNE
457.1880-CRAPOULET Adrien31FRATAC CYCLISME1:27:346:45 8.91224sem
458.2392-DUFOSSE Jerome25FRA1:27:356:45 8.91225sem
459.1542-FBERNARD Ludivine35FRATEAM GRAVELINES1:27:356:45 8.9136sef
460.2543-LECOUSTRE Kevin34FRA1:27:406:45 8.90226sem
461.1624-CLAVIEZ Johann39FRABOULOGNE ATHLET1:27:406:45 8.90227sem
462.1512-FHENNETTE Aurélie39FRA1:27:456:45 8.8915v1f
463.1083-LEMPIN David48FRA1:27:506:46 8.88113v1m
464.1203-GRESSIER Ghislain40FRA1:27:566:46 8.87114v1m
465.1244-FARDOUX Jeremy44FRA1:27:566:46 8.87115v1m
466.1169-BIALORUCKI Fred35FRA1:27:566:46 8.87228sem
467.1170-MORIN Antoine39FRA1:27:576:46 8.87229sem
468.1473-VOELCKER Stephan45FRA1:27:576:46 8.87116v1m
469.1667-BLONDEL Emmanuel32FRA1:27:586:46 8.87230sem
470.1854-SERGENT Clement27FRA1:27:596:47 8.87231sem
471.2203-DITACROUTE Thomas45FRA1:28:006:47 8.86117v1m
472.2311-FALEMPIN Sylvain47FRA1:28:006:47 8.86118v1m
473.2205-VAN MEIR Dgiovani24FRACROWN OUTREAU1:28:036:47 8.86232sem
474.2477-FDUCHATEAU Christine48FRA1:28:056:47 8.8616v1f
475.2317-DEPARIS Maxime40FRA1:28:056:47 8.86119v1m
476.2476-DUCHATEAU Guillaume49FRA1:28:076:47 8.8537v2m
477.1172-FMARIE Stéphanie52FRA1:28:106:47 8.853v2f
478.1173-MARIE Guillaume33FRA1:28:106:47 8.85233sem
479.22831349632FVACANDARE Claire37FRACOBRELES1:28:176:48 8.8437sef
480.11051529722FNÉANT Aude40FRACOB ATHLÉTISME1:28:186:48 8.8317v1f
481.1182-FCRESSY Sophie32FRA1:28:196:48 8.8338sef
482.1181-FSAVALLE Isabelle44FRA1:28:206:48 8.8318v1f
483.1761-DUCHATEAU Thomas17FRACRAZY AND TRI1:28:206:48 8.8324jum
484.2279-FPILLON Anne Sophie31FRA1:28:226:48 8.8339sef
485.2312-CAMERLYNCK Francois38FRA1:28:276:49 8.82234sem
486.2146-KNOCKAERT Anthony36FRATEAM TRAIL GRAV1:28:276:49 8.82235sem
487.1532-BONNET Michaël40FRA1:28:286:49 8.82120v1m
488.1531-DUBOIS Philippe50FRA1:28:286:49 8.8238v2m
489.2046-DEBOUT Yves51FRA1:28:316:49 8.8139v2m
490.2113-DELOZIERE Christophe44FRA1:28:316:49 8.81121v1m
491.2110-DALLE Jeremie44FRA1:28:316:49 8.81122v1m
492.1578-FLORENT Thierry49FRA1:28:326:49 8.81123v1m
493.1650-COUSIN Boris22FRA1:28:336:49 8.81236sem
494.1427-ROBBE Jeremy34FRA1:28:356:49 8.81237sem
495.1605-QUEVAL Robert47FRA1:28:376:49 8.80124v1m
496.1490-DEFFONTAINES Stephane53FRA1:28:376:49 8.8040v2m
497.2032-POTIER Guillaume37FRA1:28:406:50 8.80238sem
498.2227-DEBEIR Arnaud51FRACROWN OUTREAU1:28:406:50 8.8041v2m
499.1882-HEQUET Thomas34FRA1:28:406:50 8.80239sem
500.2390-MAGNIES Laurent29FRA1:28:426:50 8.79240sem
DNF: abandon; DSQ: disqualifié; Vitesse en km/h
Seite: [1] 2 3